Preview of NWS' New Version of Forecast
This preview is not operational and should not be used for support decisions.

Regional Weather Roundup (RWR)

Issued by Gray - Portland, ME (GYX)

                            
131 
ASUS41 KGYX 180610
RWRGYX
WEATHER ROUNDUP FOR MAINE AND NEW HAMPSHIRE
NATIONAL WEATHER SERVICE GRAY ME
200 AM EDT MON JUN 18 2018

MEZ002-005-006-010-012-015-018-020-021-024-026-027-029-180700-
MAINE
  
CITY           SKY/WX    TMP DP  RH WIND       PRES   REMARKS
PORTLAND       CLOUDY    56  55  97 E6        30.01F FOG              
6HR MIN TEMP:  54; 6HR MAX TEMP:  56;                                

SANFORD        FAIR      49  48  97 CALM      30.02F                  
BAR HARBOR     FAIR      54  52  93 SE3       30.03F                  
WISCASSET      FAIR      52  52 100 CALM      30.03F                  
6HR MIN TEMP:  52; 6HR MAX TEMP:  57;                                

ROCKLAND       CLOUDY    52  51  97 CALM      30.02F FOG              
FRYEBURG       FAIR      55  55 100 CALM      30.00F                  
6HR MIN TEMP:  54; 6HR MAX TEMP:  69;                                

LEWISTONAUBURN FAIR      53  52  96 S5        30.00F                  
AUGUSTA        FAIR      53  51  93 S3        30.00F                  
6HR MIN TEMP:  53; 6HR MAX TEMP:  61;                                

BANGOR         FAIR      54  51  90 S6        30.01F                  
6HR MIN TEMP:  54; 6HR MAX TEMP:  61;                                

GREENVILLE       N/A     54  50  86 SE10      29.95F                  
6HR MIN TEMP:  54; 6HR MAX TEMP:  63;                                

MILLINOCKET    MOCLDY    56  49  77 VRB5      29.98F                  
6HR MIN TEMP:  56; 6HR MAX TEMP:  64;                                

HOULTON        CLOUDY    55  45  68 S9        29.94F                  
6HR MIN TEMP:  54; 6HR MAX TEMP:  63; 6HR PCP: TRACE;                

PRESQUE ISLE   FAIR      54  45  71 S9        29.91F                  
6HR MIN TEMP:  54; 6HR MAX TEMP:  63; 6HR PCP:  0.02;                

FRENCHVILLE    LGT RAIN  56  49  77 S13       29.86F                  
6HR MIN TEMP:  56; 6HR MAX TEMP:  62; 6HR PCP:  0.06;                

CARIBOU        FAIR      55  45  68 S13       29.90F                  
6HR MIN TEMP:  55; 6HR MAX TEMP:  64; 6HR PCP:  0.08;                

$$

NHZ002-005-008-009-011-012-014-180700-
NEW HAMPSHIRE
  
CITY           SKY/WX    TMP DP  RH WIND       PRES   REMARKS
ROCHESTER      FAIR      56  54  93 CALM      30.01F                  
6HR MIN TEMP:  55; 6HR MAX TEMP:  65;                                

NASHUA         FAIR      61  56  83 CALM      30.03S                  
MANCHESTER     MOCLDY    66  55  67 CALM      30.01S                  
6HR MIN TEMP:  66; 6HR MAX TEMP:  78;                                

CONCORD        FAIR      57  55  93 CALM      30.01F                  
6HR MIN TEMP:  57; 6HR MAX TEMP:  74;                                

LACONIA        FAIR      63  56  78 W3        30.01F                  
PLYMOUTH         N/A     59  56  88 CALM      30.01F                  
BERLIN         MOCLDY    62  57  83 CALM      29.98F                  
6HR MIN TEMP:  59; 6HR MAX TEMP:  77;                                

WHITEFIELD     MOCLDY    61  55  81 CALM      29.98F HAZE             
6HR MIN TEMP:  58; 6HR MAX TEMP:  77;                                

JAFFREY        FAIR      69  56  62 S7        30.05F                  
6HR MIN TEMP:  66; 6HR MAX TEMP:  76;                                

KEENE          FAIR      59  56  89 CALM      30.03F                  
LEBANON        FAIR      62  55  77 S7        29.99F                  
6HR MIN TEMP:  60; 6HR MAX TEMP:  77;                                

MT WASHINGTON  LGT RAIN  54  45  71 W52         N/A                   
6HR MIN TEMP:  52; 6HR MAX TEMP:  57; 6HR PCP: TRACE;                

$$

VTZ005-007-008-180700-
VERMONT
  
CITY           SKY/WX    TMP DP  RH WIND       PRES   REMARKS
ST JOHNSBURY     N/A     64  57  78 MISG      29.95F                  
MONTPELIER     FAIR      69  51  52 S3        30.01F                  
BURLINGTON     FAIR      77  49  37 S10       29.90F                  
$$

MAZ007-012-024-CTZ003-RIZ002-NYZ038-NYZ072-180700-
SOUTHERN NEW ENGLAND AND NY
  
CITY           SKY/WX    TMP DP  RH WIND       PRES   REMARKS
BOSTON         FAIR      68  56  65 SW13      30.03S                  
WORCESTER      FAIR      67  52  58 SW12      30.06S                  
NANTUCKET      FAIR      60  59  96 SW9       30.08S                  
PROVIDENCE     FAIR      62  60  93 S7        30.06F                  
HARTFORD       FAIR      67  56  67 S7        30.04S                  
ALBANY         FAIR      74  55  51 S12       30.00F                  
NEW YORK CITY  FAIR      76  61  59 SW9       30.06S                  
$$

ANZ081-ANZ082-ANZ150-NHZ014-MEZ023>029-180700-
COASTAL MARINE OBSERVATIONS
  
STATION/POSITION TIME  TEMP    WIND        PRES    WAVE
                       AIR SEA DIR/SP/G            HT/PER
                 (UTC) (F)     (DEG/KT/KT) (MB)    (FT/S)
MOUNT DESERT ROC 0600   52     150/  4/  4 1017.3F
MATINICUS ROCK   0600   53     130/  5/  5 1016.2F
ISLE OF SHOALS   0600   59      20/  2/  2 1016.1F
JEFFREYS LEDGE   0536      58                N/A     2/ 3
$$

.............KEY..............
   WCI - WIND CHILL
   TC  - TEMPERATURE IN CELSIUS
   VSB - VISIBILITY IN MILES
   HX  - HEAT INDEX
   FAIR- INDICATES FEW OR NO CLOUDS BELOW 12,000 FT, WITH NO 
         SIGNIFICANT WEATHER AND/OR OBSTRUCTIONS TO VISIBILITY.